Regional Weather Roundup
Issued by NWS

Home | Current Version | Previous Version | Text Only | Print | Product List | Glossary On
Versions: 1 2 3 4 5 6 7 8 9 10 11 12 13 14 15 16 17 18 19 20 21 22 23 24 25 26 27 28 29 30 31 32 33 34 35 36 37 38 39 40 41 42 43 44 45 46 47 48 49 50
000
ASUS43 KMKX 041921
RWRWI

WISCONSIN REGIONAL WEATHER ROUNDUP
NATIONAL WEATHER SERVICE MILWAUKEE/SULLIVAN WI
200 PM CDT TUE AUG 04 2015

NOTE: "FAIR" INDICATES FEW OR NO CLOUDS BELOW 12,000 FEET WITH NO
SIGNIFICANT WEATHER AND/OR OBSTRUCTIONS TO VISIBILITY.

WIZ001-002-006>008-014>016-023>028-042000-
NORTHWEST WISCONSIN

CITY           SKY/WX    TMP DP  RH WIND       PRES   REMARKS
SUPERIOR ARPT  MOSUNNY   74  54  48 W10       29.96S
ASHLAND        PTSUNNY   72  55  55 N6        29.98S
HAYWARD        MOSUNNY   75  51  43 W9        29.98S
SIREN          PTSUNNY   75  51  43 NW8       29.98S
CUMBERLAND     PTSUNNY   72  50  46 W10G21    29.99S
RICE LAKE      CLOUDY    76  51  41 W10G16    30.00S
CHETEK         PTSUNNY   75  55  48 CALM      29.99S
LADYSMITH      PTSUNNY   73  52  48 W10       30.01R
EAU CLAIRE     PTSUNNY   78  52  40 W10       29.98S
MENOMONIE      MOSUNNY   79  50  36 W13       29.99F
NEW RICHMOND   PTSUNNY   77  51  41 W14       30.00S
OSCEOLA        MOSUNNY   77  52  41 NW13      30.01S
$$

WIZ003>005-009-010-017-018-042000-
NORTH CENTRAL WISCONSIN

CITY           SKY/WX    TMP DP  RH WIND       PRES   REMARKS
MANITOWISH WTR CLOUDY    66  51  58 NW10      29.99R
ARBOR VITAE    MOSUNNY   70  54  56 N9        29.98S
WOODRUFF       MOSUNNY   70  54  56 N9        29.98S
RHINELANDER    PTSUNNY   71  49  45 W10       29.98R
EAGLE RIVER    PTSUNNY   68  47  48 N13       29.98S
LAND O LAKES   MOSUNNY   67  49  53 N10G17    29.99S
PHILLIPS       PTSUNNY   69  52  53 W8        29.98S
TOMAHAWK       PTSUNNY   69  50  50 W9        29.98S
MEDFORD        CLOUDY    71  51  49 NW9G21    29.99S
MERRILL        NOT AVBL
$$

WIZ029-030-035-036-043>047-042000-
CENTRAL WISCONSIN

CITY           SKY/WX    TMP DP  RH WIND       PRES   REMARKS
WAUSAU         MOSUNNY   74  50  42 NW12      29.96S
MOSINEE        PTSUNNY   73  52  46 W12G17    29.99S
MARSHFIELD     CLOUDY    73  50  44 W12       29.99S
STEVENS POINT  PTSUNNY   72  51  47 NW9       29.98S
WAUPACA        MOSUNNY   80  49  33 W13G18    29.96S
WAUTOMA        PTSUNNY   77  49  37 NW13G20   29.98S
WISC RAPIDS    CLOUDY    77  50  38 N13       30.00R
CAMP DOUGLAS   PTSUNNY   77  54  44 W13       29.99S
$$

WIZ011>013-019>022-031-037>040-048>050-042000-
NORTHEAST WISCONSIN

CITY           SKY/WX    TMP DP  RH WIND       PRES   REMARKS
ANTIGO         MOSUNNY   73  48  42 NW14G20   29.97S
SHAWANO        MOSUNNY   77  51  39 NW12G17   29.94S
OCONTO         CLOUDY    74  53  47 NW7       29.92S
STURGEON BAY   SUNNY     72  54  53 NW9       29.96S
GREEN BAY      SUNNY     76  54  46 NW15      29.94S
MANITOWOC      CLOUDY    75  52  44 MISG      29.95R
APPLETON       PTSUNNY   75  46  35 W13G20    29.96S
CLINTONVILLE   MOSUNNY   77  46  33 W15       29.95R
OSHKOSH        MOSUNNY   76  51  41 NW16      29.96S
$$

WIZ032>034-041-042-053>061-042000-
SOUTHWEST WISCONSIN

CITY           SKY/WX    TMP DP  RH WIND       PRES   REMARKS
LA CROSSE      MOSUNNY   79  52  38 W9        29.99F
SPARTA         MOSUNNY   79  47  31 W13G18    30.00F
VIROQUA        MOSUNNY   75  52  43 NW8       30.02F
BOSCOBEL       PTSUNNY   82  51  34 NW9       30.00F HX  81
PRAIRIE DU CHI PTSUNNY   77  49  37 W6        30.00F
PLATTEVILLE    MOSUNNY   77  54  44 NW9G16    30.01F
$$

WIZ056-057-062-063-064-067-068-042000-
SOUTH CENTRAL WISCONSIN

CITY           SKY/WX    TMP DP  RH WIND       PRES   REMARKS
REEDSBURG      PTSUNNY   77  51  39 W13       29.99F
BARABOO/DELLS  PTSUNNY   77  45  32 W12G17    29.99F
LONE ROCK      PTSUNNY   80  51  36 W13       30.00F HX  80
MINERAL POINT  PTSUNNY   77  52  41 W6        30.01F
MADISON        PTSUNNY   77  52  41 NW8       29.99S
MIDDLETON      PTSUNNY   79  47  32 NW10G18   30.00S
WATERTOWN      MOSUNNY   77  53  43 NW13G20   29.98S
MONROE         PTSUNNY   77  50  38 NW13G21   30.00S
JANESVILLE     MOSUNNY   81  48  32 NW15      29.98S HX  80
$$

WIZ051-052-058>065-066-070>072-042000-
SOUTHEAST WISCONSIN

CITY           SKY/WX    TMP DP  RH WIND       PRES   REMARKS
MILWAUKEE      PTSUNNY   79  47  32 W15       29.96S
WAUKESHA       MOSUNNY   77  46  33 W12G23    29.99R
MILWAUKEE/TIMM MOSUNNY   79  45  29 NW12G21   29.97R
RACINE         PTSUNNY   78  53  41 NW13      29.98R
BURLINGTON     MOSUNNY   76  50  40 W12G17    29.98S
KENOSHA        PTSUNNY   75  56  51 W10       29.97S
FOND DU LAC    MOSUNNY   78  51  38 NW14G22   29.97S
SHEBOYGAN      PTSUNNY   74  52  46 NW10G20   29.96R
WEST BEND      PTSUNNY   75  46  35 W14G20    29.97S
JUNEAU         PTSUNNY   74  53  47 NW8       29.99S
$$

LSZ147-162-042000-
LAKE SUPERIOR

STATION/POSITION TIME  TEMP    WIND        PRES    WAVE
                       AIR SEA DIR/SP/G            HT/PER
                 (UTC) (F)     (DEG/KT/KT) (MB)    (FT/S)
W MID LAKE BUOY  1850   57 57  260/  4/  6 1015.7R   0
DEVILS ISLAND    1900   63     240/  3/  5 1015.6S
PORT WING        1800   67     300/  6/  8 1015.2
SAXON HARBOR     1800   67        CALM     1014.9F
$$

LMZ867-665-643>646-042000-
LAKE MICHIGAN

STATION/POSITION TIME  TEMP    WIND        PRES    WAVE
                       AIR SEA DIR/SP/G            HT/PER
                 (UTC) (F)     (DEG/KT/KT) (MB)    (FT/S)
CHAMBERS ISLAND  1800   65     320/  7/ 11 1013.5R
N MID LAKE BUOY  1850   63 70  280/  2/  4 1013.5R   1
NORTHPORT PIER   1800   66     310/  8/ 12 1013.5S
SISTER BAY       1818   60     340/ 15/ 16   N/A
ALGOMA LAKESHORE 1812          260/  6/ 11   N/A
KEWAUNEE LAKESHO 1800   71     290/  6/ 11 1013.1S
SHEBOYGAN LAKESH 1900   73     280/ 11/ 14 1014.4R
PORT WASHINGTON  1800   78     280/  8/ 15 1014.6S
ATWATER BUOY     1900   66 53  320/ 10/ 10 1015.8R
MILWAUKEE LAKESH 1900   76     290/ 15/ 21   N/A
KENOSHA   LAKESH 1900   77     280/ 11/ 19 1014.2R
$$

TC  - TEMPERATURE IN CELSIUS
VSB - VISIBILITY IN STATUTE MILES
WCI - WIND CHILL INDEX
HX  - HEAT INDEX



USA.gov is the U.S. government's official web portal to all federal, state and local government web resources and services.